Location: Antioch Church
(34.9543°N, 88.5145°W)
Time: 18:28:17
(UTC+00:00)

Cosmos 489 Rocket - Visible Passes

Search period start: 10 April 2020 00:00
Search period end: 20 April 2020 00:00
Orbit: 953 x 983 km, 74.0° (Epoch: 09 April)

Date Brightness Start Highest point End Pass type
(mag) Time Alt. Az. Time Alt. Az. Time Alt. Az.
10 Apr 5.2 03:10:09 10° N 03:14:32 43° NNE 03:14:32 43° NNE visible
10 Apr 7.0 04:58:09 10° NW 04:59:02 13° WNW 04:59:02 13° WNW visible
11 Apr 6.1 01:49:01 10° NNE 01:52:29 15° ENE 01:53:13 15° ENE visible
11 Apr 5.2 03:33:21 10° NNW 03:37:44 48° NNW 03:37:44 48° NNW visible
12 Apr 5.4 02:10:56 10° N 02:16:13 28° ENE 02:16:27 28° ENE visible
12 Apr 5.9 03:56:59 10° NW 04:00:59 33° WNW 04:00:59 33° WNW visible
13 Apr 4.6 02:33:38 10° N 02:39:42 53° ENE 02:39:45 53° ENE visible
13 Apr 6.6 04:21:19 10° NW 04:24:16 18° W 04:24:16 18° W visible
14 Apr 6.2 01:12:48 10° NNE 01:15:51 14° ENE 01:18:33 11° E visible
14 Apr 4.4 02:56:46 10° NNW 03:03:00 83° WSW 03:03:04 83° WSW visible
15 Apr 5.6 01:34:30 10° N 01:39:36 26° ENE 01:41:55 21° E visible
15 Apr 5.3 03:20:19 10° NNW 03:26:08 43° W 03:26:27 42° WSW visible
16 Apr 4.8 01:57:08 10° N 02:03:07 48° ENE 02:05:21 34° ESE visible
16 Apr 6.3 03:44:31 10° NW 03:49:06 22° W 03:49:53 21° WSW visible
17 Apr 4.4 02:20:12 10° NNW 02:26:27 90° ENE 02:28:50 41° SSE visible
18 Apr 5.7 00:58:05 10° N 01:02:59 24° ENE 01:07:51 10° ESE visible
18 Apr 5.2 02:43:41 10° NNW 02:49:36 47° WSW 02:52:23 29° SSW visible
19 Apr 4.9 01:20:37 10° N 01:26:32 44° ENE 01:31:28 15° SE visible
19 Apr 6.3 03:07:45 10° NW 03:12:36 24° W 03:16:01 15° SW visible
